Вернуться в каталог

FENGYUN 1C DEB

АктивенSSO
NORAD 31547·DEBRIS·🇨🇳 China

Запущен May 10, 1999 с Taiyuan Satellite Launch Center

Loading…

Ближайшие Пролёты (ближайшие 24 часа)

TLE

СвежийSource: Space-Track

Эпоха: Sep 13, 2026, 10:13 UTC

1 31547U 99025BYN 26256.42590990  .00001874  00000-0  81546-3 0  9991
2 31547  99.0702 314.0334 0053428 183.9549 176.1214 14.24557586679267

Отслеживайте FENGYUN 1C DEB в реальном времени с AllMySat

Download on the App Store